STARLINK-1741 (46567 NORAD) Tracking and Keplerian Element Data

This shows tracking and keplerian element data for the satellite.

Feedback or suggestion? Click here.




ElementValue
Catalog46567
NameSTARLINK-1741
Epoch Orbit182
Epoch Day302.58334491
Epoch Year2020
RAAN333.2989
Inclination53.0025
Eccentricity0.0001271
Argument of Perigee65.3526
Mean Anonmoly50.2504
Mean Motion15.6270072
Decay Rate0.00061712
L11 46567U 20070AM 20302.58334491 .00061712 00000-0 67605-3 0 9995
L22 46567 53.0025 333.2989 0001271 65.3526 50.2504 15.62700720 1827

Live tracking and technical data element details for STARLINK-1741 (NORAD 46567). STARLINK-1741 can be tracked NOW for your location showing map with azimuth and elevation plus other details from your city location.

Track the satellite on the map from your city or location and see movement details for azimuth, elevation, latitude, longitude, range, height, and movement on the map or in text.







IsCatalogInMostPopularTable: catalog: 46567, numindb: 3
Update: records affected: 1



GetName: 46567 STARLINK-1741

Hit Count: updated at: Fri, 30 Oct 2020 01:27:03 GMT